"Period start","avg(HW err(1)/warn(2) (#))","avg(Visibility (m))","avg(Weather code (#))","avg(Precip intensity (mm/h))","min(HW err(1)/warn(2) (#))","max(HW err(1)/warn(2) (#))","std(HW err(1)/warn(2) (#))","med(HW err(1)/warn(2) (#))","min(Visibility (m))","max(Visibility (m))","std(Visibility (m))","med(Visibility (m))","min(Weather code (#))","max(Weather code (#))","std(Weather code (#))","med(Weather code (#))","min(Precip intensity (mm/h))","max(Precip intensity (mm/h))","std(Precip intensity (mm/h))","med(Precip intensity (mm/h))"
2013-07-13 00:00:00,2,47937,0,0.00,2,2,0,2,39795,50000,3056,49510,0,0,0,0,0.00,0.00,0.00,0.00
2013-07-13 00:10:00,2,43886,0,0.00,2,2,0,2,32587,50000,6234,46026,0,0,0,0,0.00,0.00,0.00,0.00
2013-07-13 00:20:00,2,36561,0,0.00,2,2,0,2,23032,42925,5827,37964,0,0,0,0,0.00,0.00,0.00,0.00
2013-07-13 00:30:00,2,47469,0,0.00,2,2,0,2,39939,50000,3518,49878,0,0,0,0,0.00,0.00,0.00,0.00
2013-07-13 00:40:00,2,45258,0,0.00,2,2,0,2,38841,50000,4528,46217,0,0,0,0,0.00,0.00,0.00,0.00
2013-07-13 00:50:00,2,48927,0,0.00,2,2,0,2,45827,50000,1506,49996,0,0,0,0,0.00,0.00,0.00,0.00
2013-07-13 01:00:00,2,45700,0,0.00,2,2,0,2,41642,50000,3249,44704,0,0,0,0,0.00,0.00,0.00,0.00
2013-07-13 01:10:00,2,47599,0,0.00,2,2,0,2,36421,50000,4012,49392,0,0,0,0,0.00,0.00,0.00,0.00
2013-07-13 01:20:00,2,46202,0,0.00,0,2,1,2,39369,50000,4154,47504,0,0,0,0,0.00,0.00,0.00,0.00
2013-07-13 01:30:00,2,41760,0,0.00,0,2,1,2,28916,50000,6678,41964,0,0,0,0,0.00,0.00,0.00,0.00
2013-07-13 01:40:00,1,43134,0,0.00,0,2,1,2,34286,50000,5297,44038,0,0,0,0,0.00,0.00,0.00,0.00
2013-07-13 01:50:00,1,46292,0,0.00,0,2,1,0,35975,50000,3987,46516,0,0,0,0,0.00,0.00,0.00,0.00
2013-07-13 02:00:00,0,46065,0,0.00,0,0,0,0,30659,50000,6847,50000,0,0,0,0,0.00,0.00,0.00,0.00
2013-07-13 02:10:00,0,45552,0,0.00,0,0,0,0,35621,50000,5306,48659,0,0,0,0,0.00,0.00,0.00,0.00
2013-07-13 02:20:00,0,48100,0,0.00,0,0,0,0,43286,50000,2309,49332,0,0,0,0,0.00,0.00,0.00,0.00
2013-07-13 02:30:00,0,49261,0,0.00,0,0,0,0,43979,50000,1807,50000,0,0,0,0,0.00,0.00,0.00,0.00
2013-07-13 02:40:00,0,44834,0,0.00,0,0,0,0,35288,50000,5777,47868,0,0,0,0,0.00,0.00,0.00,0.00
2013-07-13 02:50:00,0,40964,0,0.00,0,0,0,0,30162,50000,6061,39972,0,0,0,0,0.00,0.00,0.00,0.00
2013-07-13 03:00:00,0,41535,0,0.00,0,0,0,0,35095,50000,5142,39477,0,0,0,0,0.00,0.00,0.00,0.00
2013-07-13 03:10:00,0,49228,0,0.00,0,0,0,0,42280,50000,2316,50000,0,0,0,0,0.00,0.00,0.00,0.00
2013-07-13 03:20:00,0,47483,0,0.00,0,0,0,0,38406,50000,3761,49768,0,0,0,0,0.00,0.00,0.00,0.00
2013-07-13 03:30:00,0,43213,0,0.00,0,0,0,0,36878,50000,4112,44644,0,0,0,0,0.00,0.00,0.00,0.00
2013-07-13 03:40:00,0,43457,0,0.00,0,0,0,0,34425,50000,5546,43985,0,0,0,0,0.00,0.00,0.00,0.00
2013-07-13 03:50:00,1,46164,0,0.00,0,2,1,0,37631,50000,4424,48335,0,0,0,0,0.00,0.00,0.00,0.00
2013-07-13 04:00:00,2,43639,0,0.00,0,2,1,2,34868,50000,5418,43701,0,0,0,0,0.00,0.00,0.00,0.00
2013-07-13 04:10:00,1,47627,0,0.00,0,2,1,2,39227,50000,3489,49688,0,0,0,0,0.00,0.00,0.00,0.00
2013-07-13 04:20:00,1,48479,0,0.00,0,2,1,2,43482,50000,1914,48848,0,0,0,0,0.00,0.00,0.00,0.00
2013-07-13 04:30:00,0,48088,0,0.00,0,0,0,0,36631,50000,3984,50000,0,0,0,0,0.00,0.00,0.00,0.00
2013-07-13 04:40:00,0,48902,0,0.00,0,0,0,0,42705,50000,2339,50000,0,0,0,0,0.00,0.00,0.00,0.00
2013-07-13 04:50:00,0,49229,0,0.00,0,0,0,0,45474,50000,1449,50000,0,0,0,0,0.00,0.00,0.00,0.00
2013-07-13 05:00:00,0,47864,0,0.00,0,0,0,0,44670,50000,2127,48755,0,0,0,0,0.00,0.00,0.00,0.00
2013-07-13 05:10:00,0,43262,0,0.00,0,0,0,0,34945,50000,5200,44086,0,0,0,0,0.00,0.00,0.00,0.00
2013-07-13 05:20:00,0,47864,0,0.00,0,0,0,0,39989,50000,3390,50000,0,0,0,0,0.00,0.00,0.00,0.00
2013-07-13 05:30:00,0,44342,0,0.00,0,0,0,0,35283,50000,3907,44511,0,0,0,0,0.00,0.00,0.00,0.00
2013-07-13 05:40:00,0,42878,0,0.00,0,0,0,0,27050,50000,7312,44613,0,0,0,0,0.00,0.00,0.00,0.00
2013-07-13 05:50:00,0,49270,0,0.00,0,0,0,0,47765,50000,941,50000,0,0,0,0,0.00,0.00,0.00,0.00
2013-07-13 06:00:00,0,48129,0,0.00,0,0,0,0,37626,50000,3734,50000,0,0,0,0,0.00,0.00,0.00,0.00
2013-07-13 06:10:00,0,46026,0,0.00,0,0,0,0,39375,50000,3804,47165,0,0,0,0,0.00,0.00,0.00,0.00
2013-07-13 06:20:00,0,45195,0,0.00,0,0,0,0,40897,50000,3447,44279,0,0,0,0,0.00,0.00,0.00,0.00
2013-07-13 06:30:00,0,49806,0,0.00,0,0,0,0,48057,50000,583,50000,0,0,0,0,0.00,0.00,0.00,0.00
2013-07-13 06:40:00,0,43140,0,0.00,0,0,0,0,29678,50000,7657,47406,0,0,0,0,0.00,0.00,0.00,0.00
2013-07-13 06:50:00,0,46563,0,0.00,0,0,0,0,39411,50000,3344,46190,0,0,0,0,0.00,0.00,0.00,0.00
2013-07-13 07:00:00,0,48764,0,0.00,0,0,0,0,43895,50000,1839,49477,0,0,0,0,0.00,0.00,0.00,0.00
2013-07-13 07:10:00,0,49306,0,0.00,0,0,0,0,44546,50000,1616,50000,0,0,0,0,0.00,0.00,0.00,0.00
2013-07-13 07:20:00,0,46760,0,0.00,0,0,0,0,42071,50000,3008,46694,0,0,0,0,0.00,0.00,0.00,0.00
2013-07-13 07:30:00,0,45942,0,0.00,0,0,0,0,37645,50000,4950,49198,0,0,0,0,0.00,0.00,0.00,0.00
2013-07-13 07:40:00,0,45870,0,0.00,0,0,0,0,36004,50000,4810,47298,0,0,0,0,0.00,0.00,0.00,0.00
2013-07-13 07:50:00,0,48456,0,0.00,0,0,0,0,38915,50000,3338,50000,0,0,0,0,0.00,0.00,0.00,0.00
2013-07-13 08:00:00,0,48772,0,0.00,0,0,0,0,42354,50000,2541,50000,0,0,0,0,0.00,0.00,0.00,0.00
2013-07-13 08:10:00,0,49221,0,0.00,0,0,0,0,43870,50000,1851,50000,0,0,0,0,0.00,0.00,0.00,0.00
2013-07-13 08:20:00,1,50000,0,0.00,0,2,1,0,50000,50000,0,50000,0,0,0,0,0.00,0.00,0.00,0.00
2013-07-13 08:30:00,2,48659,0,0.00,2,2,0,2,42637,50000,2698,50000,0,0,0,0,0.00,0.00,0.00,0.00
2013-07-13 08:40:00,2,48786,0,0.00,2,2,0,2,42879,50000,2258,50000,0,0,0,0,0.00,0.00,0.00,0.00
2013-07-13 08:50:00,2,45794,0,0.00,2,2,0,2,41393,50000,2814,45278,0,0,0,0,0.00,0.00,0.00,0.00
2013-07-13 09:00:00,2,49045,0,0.00,2,2,0,2,42643,50000,2232,50000,0,0,0,0,0.00,0.00,0.00,0.00
2013-07-13 09:10:00,2,47861,0,0.00,2,2,0,2,41239,50000,2782,49165,0,0,0,0,0.00,0.00,0.00,0.00
2013-07-13 09:20:00,2,46517,0,0.00,2,2,0,2,35390,50000,5065,48622,0,0,0,0,0.00,0.00,0.00,0.00
2013-07-13 09:30:00,2,48235,0,0.00,2,2,0,2,43879,50000,2139,49002,0,0,0,0,0.00,0.00,0.00,0.00
2013-07-13 09:40:00,2,48122,0,0.00,2,2,0,2,42594,50000,2741,49476,0,0,0,0,0.00,0.00,0.00,0.00
2013-07-13 09:50:00,2,49665,0,0.00,2,2,0,2,48054,50000,606,50000,0,0,0,0,0.00,0.00,0.00,0.00
2013-07-13 10:00:00,2,48972,0,0.00,2,2,0,2,41593,50000,2488,50000,0,0,0,0,0.00,0.00,0.00,0.00
2013-07-13 10:10:00,2,48277,0,0.00,2,2,0,2,41599,50000,3012,50000,0,0,0,0,0.00,0.00,0.00,0.00
2013-07-13 10:20:00,2,49303,0,0.00,2,2,0,2,45811,50000,1273,50000,0,0,0,0,0.00,0.00,0.00,0.00
2013-07-13 10:30:00,2,49640,0,0.00,2,2,0,2,48175,50000,721,50000,0,0,0,0,0.00,0.00,0.00,0.00
2013-07-13 10:40:00,2,48502,0,0.00,2,2,0,2,44330,50000,2005,50000,0,0,0,0,0.00,0.00,0.00,0.00
2013-07-13 10:50:00,0,50000,0,0.00,0,2,1,0,50000,50000,0,50000,0,0,0,0,0.00,0.00,0.00,0.00
2013-07-13 11:00:00,2,50000,0,0.00,2,2,0,2,50000,50000,0,50000,0,0,0,0,0.00,0.00,0.00,0.00
2013-07-13 11:10:00,2,50000,0,0.00,2,2,0,2,50000,50000,0,50000,0,0,0,0,0.00,0.00,0.00,0.00
2013-07-13 11:20:00,2,50000,0,0.00,2,2,0,2,50000,50000,0,50000,0,0,0,0,0.00,0.00,0.00,0.00
2013-07-13 11:30:00,2,50000,0,0.00,2,2,0,2,50000,50000,0,50000,0,0,0,0,0.00,0.00,0.00,0.00
2013-07-13 11:40:00,2,50000,0,0.00,2,2,0,2,50000,50000,0,50000,0,0,0,0,0.00,0.00,0.00,0.00
2013-07-13 11:50:00,2,50000,0,0.00,2,2,0,2,50000,50000,0,50000,0,0,0,0,0.00,0.00,0.00,0.00
2013-07-13 12:00:00,2,49564,0,0.00,2,2,0,2,46910,50000,962,50000,0,0,0,0,0.00,0.00,0.00,0.00
2013-07-13 12:10:00,2,50000,0,0.00,2,2,0,2,50000,50000,0,50000,0,0,0,0,0.00,0.00,0.00,0.00
2013-07-13 12:20:00,2,49981,0,0.00,2,2,0,2,49810,50000,57,50000,0,0,0,0,0.00,0.00,0.00,0.00
2013-07-13 12:30:00,2,50000,0,0.00,2,2,0,2,50000,50000,0,50000,0,0,0,0,0.00,0.00,0.00,0.00
2013-07-13 12:40:00,2,49828,0,0.00,2,2,0,2,48276,50000,517,50000,0,0,0,0,0.00,0.00,0.00,0.00
2013-07-13 12:50:00,2,50000,0,0.00,2,2,0,2,50000,50000,0,50000,0,0,0,0,0.00,0.00,0.00,0.00
2013-07-13 13:00:00,2,50000,0,0.00,2,2,0,2,50000,50000,0,50000,0,0,0,0,0.00,0.00,0.00,0.00
2013-07-13 13:10:00,2,50000,0,0.00,2,2,0,2,50000,50000,0,50000,0,0,0,0,0.00,0.00,0.00,0.00
2013-07-13 13:20:00,2,49981,0,0.00,2,2,0,2,49809,50000,57,50000,0,0,0,0,0.00,0.00,0.00,0.00
2013-07-13 13:30:00,2,50000,0,0.00,2,2,0,2,50000,50000,0,50000,0,0,0,0,0.00,0.00,0.00,0.00
2013-07-13 13:40:00,2,50000,0,0.00,2,2,0,2,50000,50000,0,50000,0,0,0,0,0.00,0.00,0.00,0.00
2013-07-13 13:50:00,2,50000,0,0.00,2,2,0,2,50000,50000,0,50000,0,0,0,0,0.00,0.00,0.00,0.00
2013-07-13 14:00:00,2,50000,0,0.00,2,2,0,2,50000,50000,0,50000,0,0,0,0,0.00,0.00,0.00,0.00
2013-07-13 14:10:00,2,42692,0,0.00,2,2,0,2,27310,50000,8198,45854,0,0,0,0,0.00,0.00,0.00,0.00
2013-07-13 14:20:00,2,39781,0,0.00,2,2,0,2,21503,50000,11645,47018,0,0,0,0,0.00,0.00,0.00,0.00
2013-07-13 14:30:00,2,48911,0,0.00,2,2,0,2,42814,50000,2162,50000,0,0,0,0,0.00,0.00,0.00,0.00
2013-07-13 14:40:00,2,50000,0,0.00,2,2,0,2,50000,50000,0,50000,0,0,0,0,0.00,0.00,0.00,0.00
2013-07-13 14:50:00,2,50000,0,0.00,2,2,0,2,50000,50000,0,50000,0,0,0,0,0.00,0.00,0.00,0.00
2013-07-13 15:00:00,2,50000,0,0.00,2,2,0,2,50000,50000,0,50000,0,0,0,0,0.00,0.00,0.00,0.00
2013-07-13 15:10:00,2,50000,0,0.00,2,2,0,2,49999,50000,0,50000,0,0,0,0,0.00,0.00,0.00,0.00
2013-07-13 15:20:00,2,50000,0,0.00,2,2,0,2,50000,50000,0,50000,0,0,0,0,0.00,0.00,0.00,0.00
2013-07-13 15:30:00,2,50000,0,0.00,2,2,0,2,50000,50000,0,50000,0,0,0,0,0.00,0.00,0.00,0.00
2013-07-13 15:40:00,2,50000,0,0.00,2,2,0,2,50000,50000,0,50000,0,0,0,0,0.00,0.00,0.00,0.00
2013-07-13 15:50:00,2,50000,0,0.00,2,2,0,2,50000,50000,0,50000,0,0,0,0,0.00,0.00,0.00,0.00
2013-07-13 16:00:00,2,50000,0,0.00,2,2,0,2,50000,50000,0,50000,0,0,0,0,0.00,0.00,0.00,0.00
2013-07-13 16:10:00,2,50000,0,0.00,2,2,0,2,50000,50000,0,50000,0,0,0,0,0.00,0.00,0.00,0.00
2013-07-13 16:20:00,2,50000,0,0.00,2,2,0,2,50000,50000,0,50000,0,0,0,0,0.00,0.00,0.00,0.00
2013-07-13 16:30:00,2,50000,0,0.00,2,2,0,2,50000,50000,0,50000,0,0,0,0,0.00,0.00,0.00,0.00
2013-07-13 16:40:00,2,49916,0,0.00,2,2,0,2,49163,50000,251,50000,0,0,0,0,0.00,0.00,0.00,0.00
2013-07-13 16:50:00,2,50000,0,0.00,2,2,0,2,50000,50000,0,50000,0,0,0,0,0.00,0.00,0.00,0.00
2013-07-13 17:00:00,2,46323,0,0.00,2,2,0,2,35816,50000,4604,48454,0,0,0,0,0.00,0.00,0.00,0.00
2013-07-13 17:10:00,2,13118,1,0.00,2,2,0,2,3866,35208,11775,6062,0,4,2,0,0.00,0.00,0.00,0.00
2013-07-13 17:20:00,2,6650,4,0.00,2,2,0,2,3417,14361,3136,6122,4,4,0,4,0.00,0.00,0.00,0.00
2013-07-13 17:30:00,2,3399,9,0.00,2,2,0,2,773,9392,3020,1852,4,10,2,10,0.00,0.00,0.00,0.00
2013-07-13 17:40:00,2,943,24,0.00,2,2,0,2,781,1405,171,889,10,34,11,30,0.00,0.00,0.00,0.00
2013-07-13 17:50:00,2,1051,30,0.00,2,2,0,2,818,1484,262,926,30,30,0,30,0.00,0.00,0.00,0.00
2013-07-13 18:00:00,2,2022,26,0.00,2,2,0,2,822,3654,879,1792,20,30,5,30,0.00,0.00,0.00,0.00
2013-07-13 18:10:00,2,6220,20,0.00,2,2,0,2,2954,12041,2782,5771,20,20,0,20,0.00,0.00,0.00,0.00
2013-07-13 18:20:00,2,8178,20,0.00,2,2,0,2,3648,17807,4967,5947,20,20,0,20,0.00,0.00,0.00,0.00
2013-07-13 18:30:00,2,1857,20,0.00,2,2,0,2,872,3881,1033,1460,20,20,0,20,0.00,0.00,0.00,0.00
2013-07-13 18:40:00,2,1247,20,0.00,2,2,0,2,694,1717,284,1282,20,20,0,20,0.00,0.00,0.00,0.00
2013-07-13 18:50:00,2,2468,20,0.00,2,2,0,2,746,8780,2308,1848,20,20,0,20,0.00,0.00,0.00,0.00
2013-07-13 19:00:00,2,13092,20,0.00,2,2,0,2,4939,26400,6855,11058,20,20,0,20,0.00,0.00,0.00,0.00
2013-07-13 19:10:00,2,33825,18,0.00,2,2,0,2,5597,50000,16769,40828,0,20,6,20,0.00,0.00,0.00,0.00
2013-07-13 19:20:00,2,49664,0,0.00,2,2,0,2,48203,50000,674,50000,0,0,0,0,0.00,0.00,0.00,0.00
2013-07-13 19:30:00,2,49757,0,0.00,2,2,0,2,47568,50000,730,50000,0,0,0,0,0.00,0.00,0.00,0.00
2013-07-13 19:40:00,2,48277,0,0.00,2,2,0,2,41311,50000,2603,49682,0,0,0,0,0.00,0.00,0.00,0.00
2013-07-13 19:50:00,2,48501,0,0.00,2,2,0,2,42507,50000,2299,50000,0,0,0,0,0.00,0.00,0.00,0.00
2013-07-13 20:00:00,2,49409,0,0.00,2,2,0,2,46886,50000,1162,50000,0,0,0,0,0.00,0.00,0.00,0.00
2013-07-13 20:10:00,2,44645,0,0.00,2,2,0,2,37863,50000,3644,44552,0,0,0,0,0.00,0.00,0.00,0.00
2013-07-13 20:20:00,2,48399,0,0.00,2,2,0,2,42254,50000,2576,49892,0,0,0,0,0.00,0.00,0.00,0.00
2013-07-13 20:30:00,2,47390,0,0.00,2,2,0,2,41257,50000,3398,49224,0,0,0,0,0.00,0.00,0.00,0.00
2013-07-13 20:40:00,2,48987,0,0.00,2,2,0,2,44545,50000,1692,50000,0,0,0,0,0.00,0.00,0.00,0.00
2013-07-13 20:50:00,2,47057,0,0.00,2,2,0,2,43052,50000,2453,47438,0,0,0,0,0.00,0.00,0.00,0.00
2013-07-13 21:00:00,2,45712,0,0.00,2,2,0,2,36907,50000,4354,46526,0,0,0,0,0.00,0.00,0.00,0.00
2013-07-13 21:10:00,2,49228,0,0.00,2,2,0,2,46182,50000,1275,50000,0,0,0,0,0.00,0.00,0.00,0.00
2013-07-13 21:20:00,2,49762,0,0.00,2,2,0,2,48675,50000,480,50000,0,0,0,0,0.00,0.00,0.00,0.00
2013-07-13 21:30:00,2,49917,0,0.00,2,2,0,2,49168,50000,250,50000,0,0,0,0,0.00,0.00,0.00,0.00
2013-07-13 21:40:00,2,48298,0,0.00,2,2,0,2,41355,50000,2968,50000,0,0,0,0,0.00,0.00,0.00,0.00
2013-07-13 21:50:00,2,49184,0,0.00,2,2,0,2,41839,50000,2448,50000,0,0,0,0,0.00,0.00,0.00,0.00
2013-07-13 22:00:00,2,48913,0,0.00,2,2,0,2,45638,50000,1462,50000,0,0,0,0,0.00,0.00,0.00,0.00
2013-07-13 22:10:00,2,46729,0,0.00,2,2,0,2,37745,50000,4403,49980,0,0,0,0,0.00,0.00,0.00,0.00
2013-07-13 22:20:00,2,49815,0,0.00,2,2,0,2,48846,50000,384,50000,0,0,0,0,0.00,0.00,0.00,0.00
2013-07-13 22:30:00,2,47991,0,0.00,2,2,0,2,40149,50000,3310,50000,0,0,0,0,0.00,0.00,0.00,0.00
2013-07-13 22:40:00,2,42384,0,0.00,2,2,0,2,30407,50000,6519,42924,0,0,0,0,0.00,0.00,0.00,0.00
2013-07-13 22:50:00,2,45569,0,0.00,2,2,0,2,36923,50000,4982,47706,0,0,0,0,0.00,0.00,0.00,0.00
2013-07-13 23:00:00,2,48007,0,0.00,2,2,0,2,39904,50000,3098,50000,0,0,0,0,0.00,0.00,0.00,0.00
2013-07-13 23:10:00,2,49014,0,0.00,2,2,0,2,44752,50000,1867,50000,0,0,0,0,0.00,0.00,0.00,0.00
2013-07-13 23:20:00,2,47966,0,0.00,2,2,0,2,38263,50000,3895,50000,0,0,0,0,0.00,0.00,0.00,0.00
2013-07-13 23:30:00,2,47685,0,0.00,2,2,0,2,38223,50000,3448,49124,0,0,0,0,0.00,0.00,0.00,0.00
2013-07-13 23:40:00,2,48787,0,0.00,2,2,0,2,44316,50000,2125,50000,0,0,0,0,0.00,0.00,0.00,0.00
2013-07-13 23:50:00,2,44902,0,0.00,2,2,0,2,40858,50000,3158,45026,0,0,0,0,0.00,0.00,0.00,0.00
